• In Kazakhstan
  • List of Countries
  • For 7 days
  • Water Temperature
  • Satellite Maps
  • Weather Map
  • News
  • Weather Widgets
  • user-avatar
    Login

    Hourly Weather Yeghegnadzor

    Today, 20 June, Thursday

    Time Temperature Precipitation Wind Pressure Humidity
    00:00 +18°C° 0 mm 1 mps 651 mmHg 69%
    01:00 +18°C° 0 mm 1 mps 651 mmHg 69%
    02:00 +18°C° 0 mm 1 mps 651 mmHg 69%
    03:00 +16°C° 0 mm 1 mps 651 mmHg 70%
    04:00 +18°C° 0 mm 1 mps 651 mmHg 68%
    05:00 +19°C° 0 mm 1 mps 651 mmHg 67%
    06:00 +20°C° 0 mm 1 mps 652 mmHg 65%
    07:00 +22°C° 0 mm 1 mps 652 mmHg 59%
    08:00 +24°C° 0 mm 1 mps 652 mmHg 53%
    09:00 +25°C° 0 mm 1 mps 652 mmHg 48%
    10:00 +26°C° 0.1 mm 2 mps 652 mmHg 45%
    11:00 +27°C° 0.1 mm 2 mps 652 mmHg 43%
    12:00 +28°C° 0.1 mm 2 mps 652 mmHg 40%
    13:00 +28°C° 0.2 mm 3 mps 652 mmHg 39%
    14:00 +29°C° 0.2 mm 3 mps 651 mmHg 38%
    15:00 +29°C° 0.2 mm 3 mps 651 mmHg 37%
    16:00 +28°C° 0.1 mm 3 mps 651 mmHg 40%
    17:00 +28°C° 0.1 mm 2 mps 651 mmHg 43%
    18:00 +27°C° 0.1 mm 2 mps 650 mmHg 46%
    19:00 +25°C° 0.3 mm 2 mps 650 mmHg 54%
    20:00 +23°C° 0.3 mm 2 mps 650 mmHg 62%
    21:00 +19°C° 0.3 mm 2 mps 650 mmHg 70%
    22:00 +19°C° 0.3 mm 2 mps 650 mmHg 70%
    23:00 +20°C° 0.3 mm 1 mps 650 mmHg 70%

    Tomorrow, 21 June, Friday

    Time Temperature Precipitation Wind Pressure Humidity
    00:00 +20°C° 0.3 mm 1 mps 651 mmHg 70%
    01:00 +19°C° 0.1 mm 1 mps 650 mmHg 72%
    02:00 +19°C° 0.1 mm 1 mps 650 mmHg 73%
    03:00 +18°C° 0.1 mm 1 mps 650 mmHg 74%
    04:00 +19°C° 0.1 mm 1 mps 650 mmHg 72%
    05:00 +20°C° 0.1 mm 1 mps 650 mmHg 69%
    06:00 +20°C° 0.1 mm 1 mps 651 mmHg 66%
    07:00 +22°C° 0.3 mm 1 mps 651 mmHg 61%
    08:00 +23°C° 0.3 mm 1 mps 651 mmHg 56%
    09:00 +25°C° 0.3 mm 1 mps 652 mmHg 51%
    10:00 +26°C° 0.5 mm 1 mps 652 mmHg 49%
    11:00 +27°C° 0.5 mm 1 mps 652 mmHg 46%
    12:00 +28°C° 0.5 mm 1 mps 652 mmHg 43%
    13:00 +28°C° 0.4 mm 2 mps 652 mmHg 43%
    14:00 +28°C° 0.4 mm 2 mps 652 mmHg 43%
    15:00 +29°C° 0.4 mm 2 mps 652 mmHg 42%
    16:00 +28°C° 0.3 mm 2 mps 652 mmHg 46%
    17:00 +27°C° 0.3 mm 2 mps 652 mmHg 50%
    18:00 +26°C° 0.3 mm 2 mps 652 mmHg 54%
    19:00 +24°C° 0.7 mm 3 mps 652 mmHg 63%
    20:00 +21°C° 0.7 mm 3 mps 652 mmHg 72%
    21:00 +19°C° 0.7 mm 3 mps 651 mmHg 81%
    22:00 +18°C° 0 mm 3 mps 651 mmHg 79%
    23:00 +18°C° 0 mm 2 mps 652 mmHg 77%

    Day after tomorrow, 22 June, Saturday

    Time Temperature Precipitation Wind Pressure Humidity
    00:00 +18°C° 0 mm 2 mps 652 mmHg 76%
    01:00 +18°C° 0 mm 2 mps 651 mmHg 75%
    02:00 +17°C° 0 mm 2 mps 651 mmHg 74%
    03:00 +18°C° 0 mm 1 mps 651 mmHg 73%
    04:00 +19°C° 0 mm 1 mps 652 mmHg 71%
    05:00 +20°C° 0 mm 1 mps 652 mmHg 69%
    06:00 +21°C° 0 mm 1 mps 653 mmHg 67%
    07:00 +22°C° 0 mm 1 mps 654 mmHg 62%
    08:00 +24°C° 0 mm 1 mps 654 mmHg 56%
    09:00 +25°C° 0 mm 1 mps 655 mmHg 51%
    10:00 +26°C° 0.2 mm 1 mps 655 mmHg 49%
    11:00 +27°C° 0.2 mm 1 mps 655 mmHg 47%
    12:00 +28°C° 0.2 mm 2 mps 655 mmHg 45%
    13:00 +28°C° 0.5 mm 2 mps 654 mmHg 45%
    14:00 +28°C° 0.5 mm 2 mps 654 mmHg 46%
    15:00 +29°C° 0.5 mm 2 mps 654 mmHg 47%
    16:00 +28°C° 0.3 mm 2 mps 654 mmHg 49%
    17:00 +28°C° 0.3 mm 2 mps 654 mmHg 51%
    18:00 +27°C° 0.3 mm 2 mps 654 mmHg 54%
    19:00 +25°C° 0.1 mm 2 mps 654 mmHg 59%
    20:00 +23°C° 0.1 mm 2 mps 654 mmHg 64%
    21:00 +21°C° 0.1 mm 3 mps 654 mmHg 69%
    22:00 +20°C° 0.1 mm 2 mps 653 mmHg 69%
    23:00 +20°C° 0.1 mm 2 mps 653 mmHg 69%

    23 June, Sunday

    Time Temperature Precipitation Wind Pressure Humidity
    00:00 +19°C° 0.1 mm 2 mps 653 mmHg 69%
    01:00 +19°C° 0 mm 2 mps 653 mmHg 68%
    02:00 +19°C° 0 mm 2 mps 653 mmHg 66%
    03:00 +20°C° 0 mm 1 mps 653 mmHg 65%
    04:00 +21°C° 0 mm 1 mps 654 mmHg 63%
    05:00 +22°C° 0 mm 1 mps 654 mmHg 62%
    06:00 +22°C° 0 mm 1 mps 654 mmHg 60%
    07:00 +24°C° 0 mm 1 mps 655 mmHg 55%
    08:00 +26°C° 0 mm 1 mps 655 mmHg 50%
    09:00 +28°C° 0 mm 1 mps 656 mmHg 44%
    10:00 +29°C° 0 mm 1 mps 656 mmHg 42%
    11:00 +30°C° 0 mm 1 mps 656 mmHg 40%
    12:00 +31°C° 0 mm 2 mps 656 mmHg 37%
    13:00 +31°C° 0 mm 2 mps 656 mmHg 35%
    14:00 +32°C° 0 mm 2 mps 656 mmHg 33%
    15:00 +33°C° 0 mm 3 mps 655 mmHg 31%
    16:00 +32°C° 0 mm 2 mps 655 mmHg 35%
    17:00 +31°C° 0 mm 2 mps 655 mmHg 40%
    18:00 +30°C° 0 mm 2 mps 654 mmHg 45%
    19:00 +28°C° 0 mm 2 mps 654 mmHg 50%
    20:00 +26°C° 0 mm 3 mps 654 mmHg 55%
    21:00 +24°C° 0 mm 3 mps 654 mmHg 60%
    22:00 +22°C° 0 mm 3 mps 653 mmHg 60%
    23:00 +23°C° 0 mm 2 mps 653 mmHg 60%

    24 June, Monday

    Time Temperature Precipitation Wind Pressure Humidity
    00:00 +21°C° 0 mm 2 mps 653 mmHg 60%
    01:00 +21°C° 0 mm 2 mps 653 mmHg 61%
    02:00 +20°C° 0 mm 2 mps 653 mmHg 62%
    03:00 +20°C° 0 mm 2 mps 653 mmHg 64%
    04:00 +21°C° 0 mm 2 mps 653 mmHg 62%
    05:00 +23°C° 0 mm 2 mps 654 mmHg 61%
    06:00 +24°C° 0 mm 2 mps 654 mmHg 59%
    07:00 +26°C° 0 mm 1 mps 654 mmHg 53%
    08:00 +27°C° 0 mm 1 mps 655 mmHg 47%
    09:00 +29°C° 0 mm 1 mps 655 mmHg 42%
    10:00 +30°C° 0 mm 1 mps 655 mmHg 39%
    11:00 +31°C° 0 mm 2 mps 655 mmHg 37%
    12:00 +32°C° 0 mm 2 mps 655 mmHg 35%
    13:00 +34°C° 0.1 mm 2 mps 655 mmHg 34%
    14:00 +34°C° 0.1 mm 3 mps 655 mmHg 33%
    15:00 +34°C° 0.1 mm 3 mps 655 mmHg 32%
    16:00 +33°C° 0.2 mm 3 mps 654 mmHg 36%
    17:00 +31°C° 0.2 mm 2 mps 654 mmHg 41%
    18:00 +31°C° 0.2 mm 2 mps 654 mmHg 46%
    19:00 +28°C° 0 mm 2 mps 654 mmHg 51%
    20:00 +26°C° 0 mm 3 mps 654 mmHg 55%
    21:00 +24°C° 0 mm 3 mps 654 mmHg 60%
    22:00 +24°C° 0 mm 2 mps 654 mmHg 61%
    23:00 +23°C° 0 mm 2 mps 654 mmHg 62%

    25 June, Tuesday

    Time Temperature Precipitation Wind Pressure Humidity
    00:00 +21°C° 0 mm 2 mps 654 mmHg 63%
    01:00 +22°C° 0 mm 1 mps 653 mmHg 63%
    02:00 +22°C° 0 mm 1 mps 653 mmHg 64%
    03:00 +21°C° 0 mm 1 mps 653 mmHg 64%
    04:00 +22°C° 0 mm 1 mps 654 mmHg 62%
    05:00 +23°C° 0 mm 1 mps 654 mmHg 61%
    06:00 +24°C° 0 mm 1 mps 654 mmHg 59%
    07:00 +26°C° 0 mm 1 mps 655 mmHg 54%
    08:00 +28°C° 0 mm 1 mps 655 mmHg 48%
    09:00 +29°C° 0 mm 1 mps 655 mmHg 43%
    10:00 +30°C° 0 mm 1 mps 656 mmHg 41%
    11:00 +31°C° 0 mm 1 mps 656 mmHg 38%
    12:00 +32°C° 0 mm 2 mps 656 mmHg 36%
    13:00 +34°C° 0 mm 2 mps 655 mmHg 34%
    14:00 +34°C° 0 mm 2 mps 655 mmHg 32%
    15:00 +35°C° 0 mm 2 mps 655 mmHg 30%
    16:00 +34°C° 0 mm 2 mps 655 mmHg 34%
    17:00 +32°C° 0 mm 2 mps 655 mmHg 38%
    18:00 +32°C° 0 mm 2 mps 654 mmHg 42%
    19:00 +29°C° 0 mm 2 mps 654 mmHg 48%
    20:00 +27°C° 0 mm 2 mps 654 mmHg 55%
    21:00 +24°C° 0 mm 2 mps 654 mmHg 62%
    22:00 +24°C° 0 mm 2 mps 653 mmHg 62%
    23:00 +24°C° 0 mm 2 mps 653 mmHg 61%
    Show more